This demonstration page uses our WeatherBlox Daily Observations layout. Learn more.

Left ArrowRight Arrow

Hourly Observations for September 15, 2021

Temp ( °F °C ) Dew Point ( °F °C ) Humidity (%) Winds ( mph kmh ) Pressure ( in mb ) Visibility ( mi km ) Precip ( " mm )
12:53 am 00:53 Cloudy 69 20.6 65 18.3 87 87 S 3 6 29.91 1013 10 16 N/A
1:53 am 01:53 Cloudy 69 20.6 66 18.9 90 90 ENE 8 13 29.90 1013 10 16 N/A
2:00 am 02:00 Cloudy with Light Rain 69 20.6 66 18.9 90 90 E 5 7 29.90 1012 10 16 0.00 0.00
2:20 am 02:20 Cloudy with Thunderstorms 68 20 66 18.9 93 93 NW 8 13 29.91 1013 10 16 0.00 0.00
2:34 am 02:34 Cloudy with Thunderstorms 70 21.1 68 20 93 93 NNW 10 17 29.92 1013 10 16 0.00 0.00
2:53 am 02:53 Cloudy with Thunderstorms 69 20.6 68 20 96 96 SSE 5 7 29.91 1013 10 16 0.00 0.00
3:12 am 03:12 Cloudy with Thunderstorms 69 20.6 68 20 96 96 NW 7 11 29.93 1014 8 13 0.01 0.25
3:31 am 03:31 Cloudy with Mist and Fog 69 20.6 68 20 96 96 WSW 5 7 29.95 1014 6 10 0.01 0.25
3:53 am 03:53 Cloudy 69 20.6 68 20 96 96 N 6 9 29.93 1014 8 13 0.01 0.25
4:53 am 04:53 Cloudy 70 21.1 68 20 93 93 N 7 11 29.94 1014 7 11 N/A
5:53 am 05:53 Cloudy 69 20.6 66 18.9 90 90 E 9 15 29.95 1014 10 16 N/A
6:53 am 06:53 Cloudy 68 20 65 18.3 90 90 E 9 15 29.95 1014 10 16 N/A
7:53 am 07:53 Cloudy 68 20 66 18.9 93 93 SSE 6 9 29.98 1015 9 14 N/A
8:41 am 08:41 Cloudy 69 20.6 66 18.9 90 90 VRB 3 6 29.98 1015 10 16 N/A
8:53 am 08:53 Mostly Cloudy 68 20 67 19.4 96 96 SSE 6 9 29.99 1016 8 13 N/A
9:27 am 09:27 Mostly Cloudy 70 21.1 67 19.4 90 90 S 6 9 29.98 1015 10 16 N/A
9:53 am 09:53 Partly Cloudy 72 22.2 67 19.4 84 84 SSE 10 17 29.98 1015 10 16 N/A
10:53 am 10:53 Partly Cloudy 75 23.9 67 19.4 76 76 SSE 7 11 29.98 1015 10 16 N/A
11:53 am 11:53 Mostly Sunny 79 26.1 68 20 69 69 VRB 6 9 29.96 1015 10 16 N/A
12:53 pm 12:53 Mostly Sunny 81 27.2 67 19.4 62 62 S 6 9 29.95 1014 10 16 N/A
1:53 pm 13:53 Mostly Sunny 83 28.3 64 17.8 53 53 S 6 9 29.92 1013 10 16 N/A
2:53 pm 14:53 Mostly Sunny 85 29.4 65 18.3 51 51 N N/A 29.89 1012 10 16 N/A
3:53 pm 15:53 Mostly Sunny 86 30 63 17.2 46 46 N N/A 29.87 1012 10 16 N/A
4:53 pm 16:53 Mostly Sunny 86 30 62 16.7 45 45 S 10 17 29.86 1011 10 16 N/A
5:53 pm 17:53 Partly Cloudy 86 30 63 17.2 46 46 S 7 11 29.86 1011 10 16 N/A
6:53 pm 18:53 Mostly Sunny 83 28.3 64 17.8 53 53 SE 7 11 29.87 1012 10 16 N/A
7:53 pm 19:53 Mostly Clear 80 26.7 64 17.8 58 58 ESE 8 13 29.88 1012 10 16 N/A
8:53 pm 20:53 Mostly Clear 78 25.6 67 19.4 69 69 ESE 12 19 29.89 1012 10 16 N/A
9:53 pm 21:53 Mostly Clear 76 24.4 66 18.9 72 72 SE 12 19 29.91 1013 10 16 N/A
10:53 pm 22:53 Mostly Clear 74 23.3 65 18.3 74 74 SE 12 19 29.91 1013 10 16 N/A
11:53 pm 23:53 Mostly Clear 73 22.8 64 17.8 74 74 SE 12 19 29.91 1013 10 16 N/A

Powered by AerisWeather